Location: Unspecified
(49.2170°N, 0.0000°E)
Time: 06:21:09
(UTC+00:00)

Explorer 7 - Pass Details

Date: 25 January 2021
Orbit: 484 x 677 km, 50.3° (Epoch: 04 March)

Event Time Altitude Azimuth Distance (km) Brightness Sun altitude
Exits shadow 04:39:05 27° 100° (E) 1,006 8.7 -29.3°
Drops below altitude 10° 04:41:16 10° 80° (E) 1,765 10.3 -29.0°
Sets 04:43:38 0° 73° (ENE) 2,689 11.5 -28.6°
